Showing default

ANDESITE, 45726

Orbit data source: Space-Track

ANDESITE, 45726 is a payload satellite owned by BU (US) in SSO that was launched on Sat, 13 Jun 2020 UTC via an ELECTRON launch vehicle from the Rocket Lab Launch Complex (RLLC). Payload-class satellites include a variety of spacecraft equipped with specific instruments for various scientific and technological missions. These include communications satellites like Starlink; space stations such as the ISS; scientific satellites like the Hubble; Earth observation satellites from companies like Planet Labs, Umbra, and HawkEye 360; GPS; miniature CubeSats for education and research; and military/defense satellites.

Loading next visibility...
Identifier
45726, 2020-037D
Orbit
SSO
Country
Flag of USUS
Related business
Manufacturer
BU
Mission
Operational Amateur Classified
Bus & Motor
CUBESAT 6U, Unknown motor
Mass
~5.5 kg wet, ~2.5 kg dry
Launch date (UTC)
2020-06-13 (6 years ago)
Launch vehicle
ELECTRON
Launch site
Rocket Lab Launch Complex (RLLC)
Object type
Payload
Rocket body
Debris
Shape & HBR
Box, Unknown HBR
Radar Cross Section
0.080 m², Medium (>0.1 m² and < 1m²)

Expand to show TLE details & history
Last TLE update: 2 days ago

TLE from 2 days ago
0 ANDESITE
1 45726U 20037D   26171.29273726  .00002646  00000-0  18734-3 0  9995
2 45726  97.7849   4.2610 0009585 152.8589 207.3140 15.05698092326135
Epoch: 2026-06-20T07:01Z
TLE epoch observation values (Epoch: 2026-06-20T07:01:32.499Z)
Latitude
-0.00002°
Longitude
-9.63386°
Altitude
558.326 km
Speed
7.579 km/s
True Right ascension
00h 17m 02s
True Declination
0° 00' 00"
Sunlit
Object was in daylight at epoch
Visualization orbit readout
Latitude
Unknown
Longitude
Unknown
Altitude
Unknown
Speed
Unknown
Apparent Right ascension
Unknown
Apparent Declination
Unknown
Sunlit
N/A
Visualization observer readout
Local Sidereal Time
21:31:14
Azimuth
Unknown
Elevation
Unknown
Doppler factor
Unknown
Orbital elements
Apogee altitude
553.002 km
Perigee altitude
539.728 km
Semi-major axis
6,924.502 km
Eccentricity
0.00096
Inclination
97.7849°
RAAN
4.261°
Arg. of periapsis
152.8589°
True anomaly
207.26365°
Mean anomaly
207.314°
Eccentric anomaly
207.28882°
Mean motion
3.76669 °/min
Orbital period
95.57 mins
BSTAR
0.00018734
Loading maneuver chart data...
Computing Atmospheric mass density...
Loading historical data...
Loading historical data...
Loading historical data...
Loading historical data...
Loading historical data...
Loading historical data...
Loading historical data...

Documentation

Showing up to 5 results
|